| time (UTC) | temp F | wind direction | speed MPH | gust MPH | rain 1hr in | rain 24hr in | rain mn in | humidity % | barometer mb |
| 20260504060216 | 57 | 0.0 | 0.0 | 0.00 | 0.06 | 0.00 | 94 | 1012.2 | |
| 20260504050216 | 56 | 0.0 | 0.0 | 0.00 | 0.06 | 0.00 | 94 | 1011.6 | |
| 20260504045216 | 56 | 0.0 | 0.0 | 0.00 | 0.06 | 0.00 | 94 | 1011.5 | |
| 20260504044216 | 56 | 0.0 | 0.0 | 0.00 | 0.06 | 0.00 | 93 | 1011.4 | |
| 20260504043216 | 56 | 0.0 | 0.0 | 0.00 | 0.07 | 0.00 | 93 | 1011.3 | |
| 20260504042216 | 56 | 0.0 | 0.0 | 0.00 | 0.07 | 0.00 | 93 | 1011.2 | |
| 20260504041216 | 56 | 0.0 | 0.0 | 0.00 | 0.07 | 0.00 | 93 | 1011.2 | |
| 20260504040216 | 56 | 0.0 | 0.0 | 0.00 | 0.07 | 0.00 | 94 | 1011.3 | |
| 20260504035216 | 55 | 0.0 | 0.0 | 0.00 | 0.07 | 0.00 | 93 | 1011.2 | |
| 20260504034216 | 55 | 0.0 | 0.0 | 0.00 | 0.07 | 0.00 | 93 | 1011.2 | |
| 20260504033216 | 55 | 0.0 | 0.0 | 0.00 | 0.07 | 0.00 | 93 | 1011.3 | |
| 20260504032216 | 55 | 0.0 | 0.0 | 0.00 | 0.07 | 0.00 | 93 | 1011.4 | |
| 20260504031217 | 55 | 0.0 | 0.0 | 0.00 | 0.07 | 0.00 | 93 | 1011.5 | |
| 20260504030216 | 55 | 0.0 | 0.0 | 0.00 | 0.07 | 0.00 | 93 | 1011.5 | |
| 20260504025216 | 55 | 0.0 | 0.0 | 0.00 | 0.07 | 0.00 | 93 | 1011.4 | |
| 20260504024216 | 55 | 0.0 | 0.0 | 0.00 | 0.08 | 0.00 | 93 | 1011.4 | |
| 20260504023216 | 55 | 0.0 | 0.0 | 0.00 | 0.09 | 0.00 | 93 | 1011.3 | |
| 20260504022216 | 55 | 90 | 1.0 | 3.0 | 0.00 | 0.12 | 0.00 | 92 | 1011.2 |
| 20260504021216 | 55 | 0.0 | 0.0 | 0.00 | 0.12 | 0.00 | 92 | 1011.2 | |
| 20260504020216 | 55 | 0.0 | 0.0 | 0.00 | 0.12 | 0.00 | 92 | 1011.2 | |
| 20260504015216 | 55 | 0.0 | 0.0 | 0.00 | 0.12 | 0.00 | 92 | 1011.2 | |
| 20260504014216 | 55 | 0.0 | 0.0 | 0.00 | 0.12 | 0.00 | 92 | 1011.3 | |
| 20260504013216 | 55 | 0.0 | 0.0 | 0.00 | 0.12 | 0.00 | 92 | 1011.3 | |
| 20260504012216 | 56 | 0.0 | 0.0 | 0.00 | 0.13 | 0.00 | 92 | 1011.4 | |
| 20260504011216 | 56 | 0.0 | 0.0 | 0.00 | 0.13 | 0.00 | 92 | 1011.3 | |
| 20260504010216 | 56 | 0.0 | 0.0 | 0.00 | 0.13 | 0.00 | 92 | 1011.3 | |
| 20260504005216 | 56 | 0.0 | 0.0 | 0.00 | 0.13 | 0.00 | 92 | 1011.3 | |
| 20260504004216 | 56 | 0.0 | 0.0 | 0.00 | 0.13 | 0.00 | 92 | 1011.2 | |
| 20260504003216 | 57 | 0.0 | 0.0 | 0.00 | 0.13 | 0.00 | 92 | 1011.3 | |
| 20260504002216 | 57 | 0.0 | 0.0 | 0.00 | 0.13 | 0.00 | 92 | 1011.2 | |
| 20260504001216 | 57 | 0.0 | 0.0 | 0.00 | 0.13 | 0.00 | 92 | 1011.3 | |
| 20260504000216 | 57 | 0.0 | 0.0 | 0.00 | 0.13 | 0.00 | 92 | 1011.2 | |
| 20260503235216 | 58 | 0.0 | 0.0 | 0.00 | 0.13 | 0.00 | 92 | 1011.3 | |
| 20260503234216 | 58 | 0.0 | 0.0 | 0.00 | 0.13 | 0.00 | 92 | 1011.3 | |
| 20260503233216 | 58 | 0.0 | 0.0 | 0.00 | 0.13 | 0.00 | 92 | 1011.4 | |
| 20260503232216 | 58 | 0.0 | 0.0 | 0.00 | 0.13 | 0.00 | 92 | 1011.4 | |
| 20260503231215 | 58 | 0.0 | 0.0 | 0.00 | 0.13 | 0.00 | 92 | 1011.4 | |
| 20260503230216 | 58 | 0.0 | 1.0 | 0.00 | 0.13 | 0.00 | 92 | 1011.4 | |
| 20260503225216 | 58 | 90 | 1.0 | 2.0 | 0.00 | 0.13 | 0.00 | 92 | 1011.4 |
| 20260503224215 | 58 | 0.0 | 1.0 | 0.00 | 0.13 | 0.00 | 92 | 1011.3 | |
| 20260503223216 | 58 | 90 | 1.0 | 5.0 | 0.00 | 0.13 | 0.00 | 92 | 1011.4 |
| 20260503222215 | 58 | 90 | 3.0 | 5.0 | 0.00 | 0.13 | 0.00 | 92 | 1011.5 |
| 20260503221215 | 58 | 0.0 | 1.0 | 0.00 | 0.13 | 0.00 | 91 | 1011.4 | |
| 20260503220216 | 58 | 0.0 | 1.0 | 0.00 | 0.13 | 0.00 | 91 | 1011.3 | |
| 20260503215217 | 58 | 0.0 | 2.0 | 0.00 | 0.13 | 0.13 | 91 | 1011.2 | |
| 20260503214217 | 59 | 0.0 | 0.0 | 0.00 | 0.13 | 0.13 | 91 | 1011.2 | |
| 20260503213217 | 59 | 0.0 | 2.0 | 0.00 | 0.13 | 0.13 | 91 | 1011.1 | |
| 20260503212217 | 59 | 0.0 | 0.0 | 0.00 | 0.14 | 0.13 | 91 | 1011.2 | |
| 20260503211217 | 59 | 0.0 | 0.0 | 0.00 | 0.16 | 0.13 | 90 | 1011.1 | |
| 20260503210217 | 59 | 90 | 2.0 | 5.0 | 0.00 | 0.17 | 0.13 | 90 | 1011.2 |
| 20260503205217 | 59 | 90 | 1.0 | 2.0 | 0.00 | 0.18 | 0.13 | 90 | 1011.1 |
| 20260503204216 | 59 | 68 | 1.0 | 4.0 | 0.00 | 0.21 | 0.13 | 90 | 1011.1 |
| 20260503203217 | 59 | 0.0 | 1.0 | 0.00 | 0.23 | 0.13 | 90 | 1011.2 | |
| 20260503202217 | 60 | 0.0 | 0.0 | 0.00 | 0.23 | 0.13 | 89 | 1011.2 | |
| 20260503201217 | 60 | 90 | 1.0 | 2.0 | 0.00 | 0.23 | 0.13 | 89 | 1011.1 |
| 20260503200217 | 60 | 90 | 2.0 | 3.0 | 0.00 | 0.23 | 0.13 | 89 | 1010.9 |
| 20260503195218 | 60 | 90 | 2.0 | 5.0 | 0.00 | 0.23 | 0.13 | 89 | 1010.8 |
| 20260503194217 | 60 | 0.0 | 1.0 | 0.00 | 0.23 | 0.13 | 89 | 1010.6 | |
| 20260503193216 | 60 | 0.0 | 0.0 | 0.00 | 0.23 | 0.13 | 88 | 1010.6 | |
| 20260503192217 | 61 | 90 | 2.0 | 5.0 | 0.00 | 0.23 | 0.13 | 88 | 1010.5 |
| 20260503191217 | 61 | 90 | 1.0 | 3.0 | 0.00 | 0.23 | 0.13 | 88 | 1010.3 |
| 20260503190216 | 61 | 90 | 2.0 | 3.0 | 0.00 | 0.23 | 0.13 | 88 | 1010.1 |
| 20260503185217 | 62 | 90 | 4.0 | 7.0 | 0.00 | 0.23 | 0.13 | 88 | 1010.2 |
| 20260503184216 | 62 | 113 | 1.0 | 3.0 | 0.00 | 0.23 | 0.13 | 88 | 1010.1 |
| 20260503183216 | 62 | 68 | 3.0 | 8.0 | 0.00 | 0.23 | 0.13 | 88 | 1010.1 |
| 20260503182216 | 62 | 68 | 1.0 | 3.0 | 0.00 | 0.23 | 0.13 | 88 | 1010.0 |
| 20260503181217 | 62 | 90 | 2.0 | 5.0 | 0.00 | 0.23 | 0.13 | 87 | 1009.8 |
| 20260503180216 | 63 | 90 | 1.0 | 2.0 | 0.00 | 0.23 | 0.13 | 87 | 1009.7 |
| 20260503175216 | 63 | 68 | 1.0 | 3.0 | 0.00 | 0.23 | 0.13 | 86 | 1009.6 |
| 20260503174216 | 63 | 0.0 | 2.0 | 0.00 | 0.23 | 0.13 | 86 | 1009.5 | |
| 20260503173216 | 63 | 68 | 2.0 | 3.0 | 0.00 | 0.23 | 0.13 | 86 | 1009.6 |
| 20260503172216 | 63 | 0.0 | 1.0 | 0.00 | 0.23 | 0.13 | 85 | 1009.7 | |
| 20260503171216 | 64 | 0.0 | 2.0 | 0.00 | 0.23 | 0.13 | 85 | 1009.6 | |
| 20260503170216 | 64 | 68 | 2.0 | 5.0 | 0.00 | 0.23 | 0.13 | 85 | 1009.6 |
| 20260503160217 | 65 | 0.0 | 0.0 | 0.01 | 0.23 | 0.13 | 80 | 1009.9 | |
| 20260503150216 | 66 | 45 | 3.0 | 4.0 | 0.00 | 0.22 | 0.13 | 77 | 1009.7 |
| 20260503140216 | 64 | 68 | 1.0 | 2.0 | 0.00 | 0.22 | 0.13 | 88 | 1010.0 |
| 20260503131216 | 61 | 135 | 2.0 | 3.0 | 0.00 | 0.22 | 0.13 | 91 | 1010.3 |
| 20260503130216 | 61 | 203 | 1.0 | 3.0 | 0.00 | 0.22 | 0.13 | 91 | 1010.3 |
| 20260503120216 | 60 | 0.0 | 0.0 | 0.00 | 0.22 | 0.13 | 93 | 1010.5 | |
| 20260503110216 | 61 | 68 | 1.0 | 3.0 | 0.02 | 0.22 | 0.13 | 93 | 1010.6 |
| 20260503100216 | 60 | 0.0 | 2.0 | 0.03 | 0.20 | 0.11 | 93 | 1010.6 | |
| 20260503090217 | 60 | 68 | 1.0 | 2.0 | 0.01 | 0.17 | 0.08 | 92 | 1010.5 |
| 20260503081217 | 61 | 0.0 | 2.0 | 0.00 | 0.17 | 0.07 | 93 | 1010.2 | |
| 20260503080217 | 61 | 0.0 | 1.0 | 0.00 | 0.17 | 0.07 | 93 | 1010.2 | |
| 20260503072217 | 61 | 0.0 | 2.0 | 0.00 | 0.17 | 0.07 | 94 | 1010.2 | |
| 20260503071217 | 61 | 68 | 2.0 | 4.0 | 0.00 | 0.17 | 0.07 | 94 | 1010.0 |
| 20260503070217 | 60 | 68 | 1.0 | 3.0 | 0.00 | 0.17 | 0.07 | 94 | 1009.8 |